GFSSW_250_spd_057.txt.gz
Wind_Speed
67 64 63 61 61 61 61 60 51 49 48 46 45 49 48 48 51 49 45 39 38 34 32 30 28 28 26 25 24 23 23 22 20 19 19 22 18 16 19 15 16 17 16 17 18
70 68 65 64 63 62 60 58 58 54 49 47 48 49 51 48 44 44 39 38 36 33 31 29 26 27 26 26 25 23 23 24 23 23 20 22 22 20 15 20 17 18 18 19 20
71 70 69 66 65 63 61 59 55 54 51 50 51 51 49 48 44 42 39 36 34 32 29 27 26 25 26 25 24 24 23 23 25 24 23 21 23 22 18 19 22 20 20 21 21
71 71 70 69 67 65 63 61 60 56 54 53 50 50 48 47 45 41 39 37 35 32 31 28 27 26 27 26 26 25 24 24 25 26 25 25 26 25 21 21 24 24 22 23 24
71 73 72 70 70 67 65 63 60 57 58 56 56 53 50 48 46 44 41 39 36 35 34 31 30 29 29 28 28 28 27 26 25 26 26 26 26 24 21 26 24 25 26 25 26
76 73 74 74 72 71 70 67 65 62 61 58 57 54 52 50 49 48 45 42 41 38 37 33 30 29 28 27 29 30 31 29 26 27 28 27 28 25 25 26 27 26 27 28 28
78 77 75 75 75 74 72 71 68 67 64 60 60 58 55 53 53 50 48 47 45 42 38 37 35 33 33 32 31 33 34 32 28 30 30 28 30 24 27 26 29 28 28 29 31
78 79 79 78 77 77 75 73 72 70 69 66 64 62 58 57 55 53 52 49 47 45 42 42 40 39 37 38 39 38 35 32 33 34 31 30 34 27 27 28 29 30 30 31 30
87 79 75 78 79 79 79 77 75 74 72 70 68 66 63 60 59 56 54 52 50 49 47 45 43 41 40 41 40 40 37 38 38 36 30 30 35 28 29 29 33 33 32 31 32
93 91 83 80 80 79 80 80 79 77 75 74 71 70 67 66 64 60 58 55 52 49 45 45 42 40 43 46 42 37 40 40 40 39 30 30 35 32 30 31 35 36 34 33 33
94 97 93 87 85 85 80 81 81 81 78 77 75 71 70 70 66 65 63 60 56 54 50 44 41 45 51 46 44 43 42 41 46 41 32 32 31 36 32 34 35 37 38 38 35
96 94 96 98 89 81 84 83 79 83 83 80 77 73 73 73 70 68 66 64 62 59 53 51 45 55 52 50 46 45 44 46 50 46 37 37 32 35 37 37 39 40 42 40 36
97 98 97 100 98 94 89 82 90 84 82 84 81 77 77 75 72 70 68 66 63 59 58 57 56 59 55 56 53 50 49 53 52 50 41 37 30 34 41 42 44 43 43 40 38
105 101 103 102 105 102 99 97 91 90 89 79 83 79 78 77 73 72 68 66 63 64 66 59 57 59 60 57 60 54 57 56 56 54 44 39 27 31 44 47 51 50 41 41 40
110 108 108 106 105 106 107 102 97 94 99 88 85 77 78 79 73 75 74 72 68 71 70 60 62 61 59 60 66 60 64 63 61 57 39 36 34 29 42 51 57 54 46 42 42
112 115 111 110 110 108 107 107 104 103 105 94 90 85 80 80 77 76 79 76 73 73 69 62 60 61 60 63 67 65 66 67 66 61 39 39 34 21 41 51 58 56 47 44 44
109 113 113 113 110 113 112 108 113 114 104 96 94 92 89 87 84 84 82 81 78 76 72 73 66 65 67 66 67 66 69 72 71 64 47 43 27 24 39 45 53 57 52 49 48
110 115 115 116 118 120 117 116 118 111 109 100 95 95 97 97 92 88 90 87 82 78 76 76 71 72 69 72 76 77 75 72 73 69 57 39 27 36 46 47 49 53 56 56 51
121 113 118 119 122 124 126 126 121 112 110 108 107 101 102 101 100 98 94 93 88 84 86 87 82 77 77 79 80 77 75 75 80 73 65 48 41 41 46 49 47 56 58 60 60
124 121 117 123 122 128 131 131 121 115 111 113 112 108 105 102 104 102 100 96 94 89 89 90 89 85 83 81 79 78 79 80 79 76 72 55 48 49 53 54 54 56 58 64 66
136 132 126 127 125 131 130 124 125 119 118 117 118 113 106 107 108 102 101 96 94 98 101 96 93 88 88 84 84 88 87 85 84 82 76 67 52 55 55 54 57 63 63 64 66
131 138 135 134 131 128 125 122 124 126 126 124 121 115 110 110 109 107 99 95 99 101 103 103 104 96 91 89 88 88 86 87 86 81 79 75 54 56 59 57 59 62 65 66 63
120 126 135 141 137 134 126 123 127 127 127 128 125 119 116 116 113 107 107 104 102 101 101 102 105 100 96 93 90 87 85 84 84 83 77 80 58 59 62 63 64 69 69 65 64
115 117 128 136 134 124 126 126 127 123 127 125 125 125 126 124 117 113 110 107 108 107 106 105 105 101 96 96 95 91 90 91 93 90 78 77 65 65 67 70 72 72 72 71 70
111 109 116 127 131 128 127 124 125 126 121 120 122 124 125 124 120 121 111 111 108 103 106 107 106 105 96 97 97 93 93 93 91 83 91 70 81 68 73 75 74 77 78 75 70
106 107 113 116 124 131 130 126 128 122 122 119 121 119 121 121 118 115 116 119 115 115 114 109 103 104 99 94 96 99 96 91 88 88 89 78 82 71 77 85 83 82 77 75 76
106 107 113 113 118 126 127 125 129 130 128 124 120 124 125 120 122 120 120 119 119 120 119 122 117 114 107 102 109 109 89 91 97 94 94 93 80 84 86 87 84 81 80 79 77

GFSSW_250_spd_060.txt.gz
Wind_Speed
69 67 64 60 57 58 56 56 55 53 53 54 51 53 49 49 47 42 43 43 45 50 56 53 50 41 37 31 30 28 27 24 24 22 20 20 16 14 15 15 17 14 13 13 13
71 68 67 65 61 60 58 58 57 56 54 53 53 51 52 48 44 42 42 45 46 50 54 51 44 40 35 30 27 26 27 25 23 21 19 20 20 16 14 19 15 16 14 15 14
71 72 69 68 65 63 62 60 59 58 54 53 53 53 52 49 45 43 42 44 48 49 49 44 40 37 33 30 27 26 25 24 23 21 21 19 20 19 17 19 21 16 16 18 17
71 74 75 70 68 67 64 62 61 60 60 57 55 55 53 50 47 45 43 45 50 50 49 43 38 34 31 28 27 27 26 25 23 22 22 23 22 21 19 20 21 21 19 20 20
75 73 74 76 73 70 67 64 63 62 62 61 59 58 55 50 48 46 47 48 52 51 45 38 36 33 31 31 30 29 28 27 26 25 25 23 22 21 22 21 21 22 23 21 21
75 77 75 75 75 75 72 69 66 65 63 62 60 59 57 54 52 49 49 50 53 51 42 38 36 34 32 31 31 31 30 29 28 28 29 28 24 20 25 23 23 23 24 24 23
78 75 79 77 77 76 77 74 72 70 67 65 62 60 59 56 54 51 52 52 52 48 43 41 39 37 34 32 34 33 33 32 31 31 33 29 29 23 26 26 26 25 24 25 26
84 82 77 79 78 80 77 77 77 74 71 68 67 66 62 59 57 58 56 54 53 51 47 46 43 42 38 37 38 38 36 36 36 35 34 32 34 29 27 29 30 31 29 27 26
88 88 83 84 80 81 80 79 78 77 77 72 70 67 66 63 60 61 58 57 54 54 51 49 46 44 42 43 43 43 38 38 40 40 35 34 37 29 30 31 31 32 32 31 30
87 92 91 87 86 85 83 81 81 79 78 77 74 70 68 67 66 64 62 61 57 56 55 53 49 47 48 50 47 41 40 43 42 43 36 36 38 31 31 33 35 34 34 35 33
88 88 92 94 91 89 87 84 84 82 80 79 76 75 74 72 69 67 65 65 60 59 56 55 51 50 56 47 44 44 43 44 50 47 37 36 34 37 31 35 38 38 38 39 37
89 91 95 96 96 94 91 89 86 83 83 81 80 78 77 77 75 73 71 69 66 62 60 57 52 61 56 51 48 46 46 47 52 49 39 38 32 38 36 36 40 43 41 38 38
97 101 98 96 97 96 97 95 90 84 84 83 83 80 81 81 77 76 74 72 70 68 66 63 61 63 59 57 57 56 51 54 51 53 44 40 30 39 41 40 44 49 45 40 37
103 101 100 100 95 98 97 99 96 92 87 81 83 83 83 80 79 77 76 75 73 72 72 67 66 69 71 66 63 59 59 58 58 57 51 44 26 36 42 45 47 55 51 45 39
106 107 104 101 100 100 101 100 99 97 99 91 88 79 82 81 78 82 81 80 76 77 78 70 72 72 69 67 70 63 66 66 61 63 56 43 34 33 42 44 52 59 56 43 43
100 103 105 107 101 102 104 103 103 106 107 96 89 87 85 83 82 83 86 84 80 81 78 73 73 73 72 73 75 72 69 68 68 66 58 50 52 30 38 42 47 61 62 46 44
102 101 102 103 110 107 107 105 109 108 108 100 95 95 92 89 84 84 84 85 86 86 80 79 77 75 76 77 75 74 73 73 74 70 58 59 56 33 43 42 50 62 61 51 51
109 106 103 104 105 109 115 118 115 111 107 101 101 100 95 97 94 90 89 88 85 84 81 84 81 78 76 78 79 80 78 77 76 71 64 64 55 34 48 49 49 57 60 58 54
118 115 111 112 110 112 115 123 119 112 112 109 106 106 106 101 97 97 96 91 87 89 88 88 86 82 81 84 86 81 78 79 84 80 72 63 61 41 44 54 54 52 58 61 62
125 122 117 121 119 118 121 122 121 117 116 116 117 110 107 106 107 103 99 93 94 92 95 95 92 86 88 89 88 85 82 87 86 84 81 67 61 54 51 56 58 58 62 62 66
134 132 129 129 125 124 119 114 109 118 124 122 117 118 112 110 108 107 106 100 99 96 101 101 99 94 94 90 87 91 90 87 87 86 84 76 64 60 57 59 60 62 66 68 69
143 140 141 135 134 129 122 117 113 112 116 121 123 122 119 114 113 113 105 103 105 105 106 102 103 96 91 94 95 95 91 92 93 88 88 83 68 64 68 66 66 63 67 72 69
132 134 146 148 144 132 127 124 123 118 117 117 116 121 121 123 119 119 112 105 109 109 104 105 109 105 102 98 93 90 88 92 94 94 90 90 71 68 74 72 69 69 69 71 72
120 125 131 139 148 143 135 130 130 123 123 121 116 115 121 122 121 116 115 113 113 112 108 107 110 108 103 101 100 97 96 97 98 98 83 89 71 72 69 70 70 73 72 70 73
112 115 120 126 132 144 148 139 132 134 133 128 124 120 115 118 117 118 117 119 117 117 115 114 115 110 104 104 104 103 100 99 97 88 99 77 86 67 73 71 72 71 72 74 75
107 109 113 116 121 125 129 127 134 142 144 135 134 126 123 125 125 119 111 119 121 125 124 122 118 114 114 109 108 108 104 97 97 97 100 86 86 67 71 79 80 81 80 77 77
104 106 110 112 116 120 118 119 121 126 136 143 145 140 140 137 135 128 123 120 121 121 128 128 124 121 116 109 113 117 101 104 106 103 97 95 80 76 81 83 85 85 83 82 82

GFSSW_250_spd_063.txt.gz
Wind_Speed
70 68 64 61 59 59 57 59 58 56 55 55 55 53 57 53 52 49 49 48 55 48 50 49 47 48 50 51 53 42 37 32 28 25 21 20 17 15 16 14 10 8 9 10 11
71 69 69 64 62 59 59 62 60 58 59 58 56 53 54 49 48 48 47 45 46 41 46 41 41 46 47 52 47 41 36 31 27 25 23 21 17 13 14 17 12 11 11 11 11
73 72 70 68 64 62 59 57 57 58 56 55 58 56 53 52 50 48 46 44 44 44 42 43 43 44 47 50 47 41 35 30 27 24 23 20 19 14 16 16 17 13 13 13 13
76 73 73 70 69 64 62 59 58 58 58 58 57 56 56 54 53 51 47 46 45 43 43 42 40 40 45 46 44 39 33 30 27 24 23 21 17 14 19 17 16 18 16 15 14
76 76 73 72 71 70 66 64 62 61 59 58 58 57 55 53 53 52 50 50 48 47 43 42 42 43 46 46 40 38 34 30 27 26 26 24 20 15 20 19 19 19 20 18 17
67 78 76 74 73 73 71 68 67 64 62 59 58 58 56 56 53 53 53 51 50 48 44 44 45 46 48 47 40 36 33 32 30 29 30 28 22 19 22 22 22 22 22 21 20
75 71 72 76 74 75 75 72 71 68 67 64 62 59 59 56 57 55 54 54 52 49 46 47 49 50 49 49 44 37 35 33 30 30 32 30 26 23 23 24 24 24 24 24 24
82 79 76 69 80 77 77 77 76 74 72 69 68 66 64 63 59 58 58 56 52 52 49 49 50 50 48 48 44 39 36 35 33 32 34 33 31 28 28 30 27 28 26 25 24
83 83 84 78 77 80 79 79 78 78 76 73 72 69 67 64 64 62 61 59 57 56 54 52 49 49 50 47 46 43 39 38 38 37 34 32 35 28 31 33 32 30 28 28 26
91 83 84 89 82 82 84 82 81 79 80 79 77 74 71 68 65 63 63 61 60 58 57 55 52 51 53 51 47 42 41 43 43 41 34 31 35 31 31 35 37 36 34 32 29
96 90 88 87 91 86 87 87 86 82 81 81 79 77 76 77 72 69 65 64 63 61 58 57 53 52 59 52 48 47 46 46 49 42 34 33 33 34 31 36 39 39 39 37 34
90 91 89 93 91 93 91 89 89 82 84 82 82 80 79 80 78 75 72 68 67 64 62 58 54 62 58 53 52 52 51 51 51 46 36 35 28 34 33 34 38 41 43 39 36
93 96 94 93 93 93 95 95 93 92 84 77 87 82 83 81 79 78 76 72 71 68 66 63 62 63 61 57 57 58 56 57 52 50 39 36 24 32 39 37 39 45 46 42 38
97 98 96 97 95 101 98 97 98 94 96 90 85 81 84 82 79 78 77 77 75 73 72 67 64 67 67 66 66 62 64 60 57 52 49 40 23 33 43 42 44 51 47 45 39
96 97 100 101 100 102 101 100 99 105 104 96 92 87 82 87 78 83 82 80 77 78 78 71 73 72 71 70 73 67 69 68 65 61 53 39 38 29 45 43 51 53 52 50 44
98 100 103 104 105 107 104 103 105 107 107 99 93 92 91 87 82 87 87 85 80 81 79 76 75 76 74 76 78 75 75 74 72 69 60 47 54 26 43 45 52 57 61 54 47
100 103 105 106 107 108 108 108 109 110 104 103 102 96 96 95 90 88 86 87 86 84 80 81 78 79 79 78 79 78 78 80 79 73 62 58 55 31 42 46 53 59 64 64 57
106 103 105 107 110 110 113 114 113 110 103 106 104 105 101 100 98 93 93 90 87 86 85 85 83 80 79 81 84 86 83 81 79 77 72 67 50 42 47 51 55 56 55 62 63
106 106 106 110 107 112 115 122 114 106 106 104 108 106 103 102 102 101 97 94 91 90 91 91 88 86 82 85 88 86 84 82 87 80 78 68 61 54 53 54 59 57 55 55 56
122 116 112 112 112 111 113 116 116 110 107 110 112 112 110 104 104 104 103 98 96 96 96 97 94 90 89 90 90 87 85 86 87 86 86 75 67 59 58 59 59 59 58 60 57
131 125 120 122 118 116 113 107 106 110 115 119 113 113 111 110 110 107 105 102 102 101 104 102 100 93 93 90 89 94 91 91 92 92 90 83 70 62 59 59 60 62 62 67 65
136 135 132 127 126 122 118 113 108 110 110 112 113 118 114 114 114 115 108 103 106 107 107 105 106 103 99 97 97 94 93 94 96 93 94 89 69 63 63 65 67 69 69 69 71
136 138 138 138 133 126 123 119 113 112 114 113 110 110 113 121 121 112 112 108 110 110 109 108 113 109 105 101 96 94 93 89 91 94 93 90 71 62 70 70 72 72 74 74 72
125 129 134 142 140 138 133 131 127 128 125 119 114 112 111 111 113 112 112 117 115 112 113 113 115 112 109 107 108 105 101 102 105 106 89 96 74 71 71 72 74 78 77 77 77
112 117 125 131 138 145 143 141 136 134 132 129 126 120 118 118 116 112 107 105 118 118 121 121 123 120 113 111 111 110 109 109 109 100 107 87 94 70 76 75 80 82 83 82 81
106 108 114 119 124 131 141 143 143 141 140 138 133 128 131 129 123 121 118 113 110 107 120 127 133 125 122 118 116 114 113 110 106 101 102 92 97 74 80 89 89 89 87 84 84
103 105 109 111 115 120 120 124 132 145 147 146 144 142 140 136 136 135 130 125 121 111 114 114 115 114 123 120 129 130 118 111 111 109 106 106 93 87 85 84 90 90 88 87 87

GFSSW_250_spd_069.txt.gz
Wind_Speed
78 76 80 74 77 80 90 83 81 79 77 70 74 67 66 69 69 58 57 51 46 43 51 48 49 52 48 46 49 54 50 44 45 51 43 35 28 25 22 19 18 16 13 12 13
73 74 78 71 75 80 87 89 80 82 82 71 74 69 68 65 64 60 57 56 52 52 54 56 55 51 47 51 46 45 41 49 52 50 47 37 30 28 24 18 16 14 13 12 12
74 75 73 78 71 78 81 82 76 80 81 81 77 74 72 70 61 61 60 64 67 61 57 57 52 46 48 47 47 47 48 45 50 55 47 38 31 30 25 19 15 14 14 14 12
69 77 79 78 74 73 81 81 83 81 84 81 75 78 76 75 76 72 66 67 69 65 61 57 51 48 54 48 52 46 52 47 48 52 43 40 32 30 27 23 16 13 12 12 12
69 69 77 77 78 76 73 81 78 78 81 83 80 80 81 82 75 74 70 68 65 63 59 55 51 53 53 48 48 41 45 49 52 53 42 43 36 30 30 27 22 16 13 11 11
84 69 74 78 78 77 74 73 78 74 74 76 76 73 76 79 79 72 66 64 64 60 55 56 52 50 46 47 46 49 47 45 47 45 44 44 35 29 31 31 27 21 17 15 12
83 82 68 77 79 78 78 75 72 72 71 71 74 75 72 70 70 72 70 64 64 65 60 58 55 50 51 48 47 50 47 44 41 44 43 42 36 29 33 30 28 24 20 19 17
89 84 79 71 77 80 78 78 74 76 75 69 72 74 72 74 69 64 67 66 62 62 63 60 56 51 52 51 50 49 47 43 43 41 41 39 38 31 34 34 31 28 24 21 18
92 90 86 80 73 78 80 79 80 75 73 72 70 70 72 72 74 73 66 67 65 66 62 62 57 55 55 54 51 50 48 46 45 40 38 37 39 33 34 36 34 32 27 26 23
93 94 90 84 83 72 80 83 80 82 76 73 72 66 66 69 71 72 71 70 68 69 65 63 60 57 58 57 57 54 51 49 46 41 41 39 38 33 34 35 37 35 33 33 31
93 95 96 90 86 82 74 80 84 81 82 79 73 71 70 69 69 71 70 70 68 67 66 64 64 59 64 61 58 54 53 51 49 47 43 38 37 36 34 37 39 36 36 35 34
97 97 95 96 91 90 86 80 80 84 83 81 83 75 75 70 71 71 73 71 68 69 67 65 62 65 61 60 58 56 56 55 57 50 43 41 38 38 36 40 38 36 38 37 38
94 100 97 95 94 93 91 89 88 86 84 84 83 82 83 79 75 74 74 72 73 72 70 69 67 66 63 59 59 59 58 61 60 53 50 49 38 41 38 39 38 40 41 39 39
90 90 96 96 96 94 95 93 92 90 91 86 84 84 83 85 83 79 75 77 78 76 76 71 67 67 67 62 65 65 65 66 62 61 59 52 39 41 42 37 39 44 43 43 42
93 90 94 99 101 98 100 95 93 94 97 93 91 84 83 86 82 86 86 86 82 82 81 76 75 75 73 71 71 68 69 71 71 69 62 54 48 40 48 41 47 49 47 47 47
83 86 91 97 103 100 100 100 95 98 98 95 93 92 90 85 84 89 89 89 89 89 88 85 82 82 81 79 81 75 75 76 75 74 67 59 57 35 46 51 51 54 54 52 51
81 83 88 93 101 101 107 101 102 103 98 97 94 95 94 93 91 91 87 88 92 91 88 90 87 87 85 83 83 81 80 82 82 79 67 69 63 32 43 50 54 59 58 60 57
79 86 89 91 95 104 103 113 112 105 105 101 99 98 99 99 97 97 96 95 93 89 86 91 90 85 87 85 88 89 88 85 79 83 74 72 58 46 46 52 57 61 65 67 67
88 86 87 92 97 98 104 110 111 107 107 106 104 104 104 101 101 99 100 97 95 96 96 96 92 87 90 91 93 90 90 86 93 87 85 74 61 56 54 55 57 63 69 70 69
101 94 89 93 96 101 106 105 104 106 110 106 109 112 109 105 105 105 105 102 103 101 102 100 99 96 95 92 91 91 92 93 92 92 93 77 71 62 62 64 65 64 68 68 72
108 103 99 96 99 103 98 95 98 101 103 106 111 110 113 112 114 109 107 107 108 107 108 107 106 101 99 96 97 98 94 92 95 96 97 90 78 65 69 70 70 71 73 73 76
116 112 107 104 104 102 98 99 99 101 103 102 108 115 113 112 117 115 113 114 112 112 115 114 111 107 105 103 102 102 99 101 103 95 101 101 86 74 74 75 77 81 81 79 79
126 119 115 112 109 104 102 106 108 105 106 105 106 109 114 118 115 113 114 115 116 117 115 117 120 115 111 108 107 108 106 109 109 110 111 108 96 80 84 85 85 85 84 83 84
130 130 126 122 117 114 113 112 111 109 110 110 110 110 109 111 113 113 113 116 118 121 123 123 124 122 117 115 115 112 112 113 114 117 108 111 99 87 89 93 91 87 87 89 89
140 136 134 135 131 127 125 123 121 119 118 120 116 113 113 112 112 110 107 111 112 116 124 125 128 122 118 117 118 119 118 118 119 116 119 108 115 98 91 94 97 95 95 94 93
137 144 140 139 140 137 135 128 130 130 126 124 122 123 122 120 118 117 116 112 113 110 111 118 122 122 120 115 119 125 122 117 117 116 117 114 113 98 92 96 99 98 100 100 98
122 130 137 142 143 142 137 135 134 139 136 135 134 131 132 129 128 127 122 119 116 114 114 114 112 115 112 110 122 128 116 120 119 121 119 121 111 104 102 100 102 102 107 101 96

GFSSW_250_spd_072.txt.gz
Wind_Speed
78 97 79 78 93 92 83 92 85 81 81 77 77 79 71 67 71 62 59 61 57 49 52 58 49 45 48 49 41 41 46 42 39 46 45 47 43 34 27 20 16 15 15 14 12
81 85 88 73 82 97 89 83 84 81 82 69 72 81 77 70 68 68 62 62 67 57 55 49 44 46 45 44 45 47 46 39 40 44 49 45 42 45 32 22 17 16 15 15 14
88 80 88 82 71 90 96 87 87 82 81 71 69 75 73 72 70 71 62 61 63 63 60 53 49 42 44 46 47 49 47 39 47 45 42 41 48 43 34 25 19 16 16 15 16
109 81 81 86 74 77 87 86 81 81 76 80 68 64 67 69 68 69 67 67 68 63 64 56 51 52 50 53 52 50 45 47 50 42 39 45 50 39 37 25 22 19 16 16 16
94 93 74 80 82 82 78 82 84 82 77 78 76 78 70 74 69 70 70 67 66 70 65 54 57 53 59 58 56 52 48 48 45 40 43 48 47 38 37 27 21 21 20 18 18
89 103 77 77 84 83 80 80 85 83 85 84 81 77 79 80 79 70 72 66 65 59 58 56 55 57 57 61 59 56 51 43 41 39 44 48 43 39 37 31 22 22 21 20 19
90 91 82 67 78 88 87 83 86 84 83 79 84 83 82 79 77 77 76 72 72 70 70 71 70 65 64 59 57 52 51 44 46 41 43 44 41 39 38 34 28 24 23 23 22
93 94 88 72 68 80 88 90 84 84 85 82 84 83 80 83 82 77 77 76 77 75 73 69 67 65 63 60 56 52 54 47 43 44 41 39 43 39 37 35 31 28 26 26 25
96 93 93 90 75 70 81 85 85 89 87 83 81 80 81 81 80 81 79 80 79 79 79 77 71 68 63 58 56 52 58 52 47 44 41 37 40 39 35 36 35 34 28 27 27
94 99 92 92 86 79 76 83 84 86 82 82 81 84 78 79 82 80 77 76 76 82 76 71 69 66 63 63 61 60 54 51 48 46 42 40 41 40 35 36 38 38 36 32 32
90 95 97 92 89 85 80 78 84 81 85 82 78 74 77 78 77 78 77 75 71 70 72 74 65 62 65 65 64 59 57 54 54 50 49 45 43 39 36 36 43 44 39 37 35
94 95 97 97 91 89 86 79 72 81 83 83 82 79 74 75 78 76 77 76 75 75 71 67 65 68 68 65 64 63 61 59 60 55 53 48 41 40 40 39 41 41 42 39 40
87 95 95 98 99 93 89 87 82 79 82 85 82 80 78 76 72 70 70 73 74 75 74 69 68 70 67 66 67 65 66 63 63 58 54 49 38 47 41 37 40 43 44 42 43
81 93 96 96 102 102 94 89 85 87 84 81 85 81 82 77 74 72 73 69 68 70 73 73 70 68 69 70 71 69 68 65 67 60 55 49 39 46 42 41 42 45 49 47 45
79 82 90 100 100 101 101 96 93 92 95 92 84 80 81 85 82 82 74 75 75 75 72 72 75 73 71 73 75 69 70 69 70 63 55 52 46 43 49 45 48 49 53 50 51
76 80 83 84 99 99 99 103 100 97 97 93 89 86 87 88 84 84 86 84 78 78 74 71 76 77 75 76 76 73 73 72 71 68 57 59 57 41 52 53 51 57 57 56 53
80 78 87 87 89 99 100 101 104 109 100 95 91 92 91 90 90 89 87 86 86 86 82 85 78 80 81 82 80 78 77 79 78 75 64 67 65 46 52 55 60 59 63 62 60
82 77 84 90 92 94 101 104 105 106 109 101 97 96 98 95 93 94 93 92 88 87 88 90 89 86 85 84 86 87 85 85 82 83 74 78 67 55 57 56 58 65 67 69 68
83 80 77 81 89 95 98 104 106 101 105 105 105 104 101 101 99 96 96 95 94 94 92 93 91 88 91 92 94 92 92 90 95 91 87 80 68 61 60 62 61 64 69 72 74
91 87 82 81 83 89 92 92 94 101 108 102 105 108 106 106 103 102 102 99 99 98 97 97 97 94 90 89 90 91 90 92 95 92 90 79 76 68 65 68 69 67 67 72 75
99 98 91 86 85 86 85 83 86 90 96 104 104 106 111 105 110 107 107 105 104 102 102 101 101 98 97 95 95 98 97 96 98 97 94 90 79 69 72 72 73 74 72 74 76
102 98 98 95 91 88 81 84 88 87 87 90 101 105 109 106 109 112 109 109 108 109 108 107 108 106 103 102 99 100 99 102 103 98 103 102 85 75 76 79 81 80 80 80 81
109 110 107 102 96 91 90 87 86 90 91 93 93 94 105 110 106 111 114 114 112 112 112 111 110 110 108 108 107 107 108 109 109 108 107 106 93 82 87 88 86 84 83 83 83
122 119 113 110 103 100 98 98 96 94 92 93 96 96 97 98 104 110 112 112 116 117 118 119 119 114 110 112 110 109 110 113 115 114 106 111 101 90 90 96 95 94 94 94 95
129 124 124 119 114 115 109 104 107 104 104 102 98 97 100 101 100 100 104 108 115 119 119 120 119 120 117 115 119 120 118 116 117 115 120 109 115 96 94 99 101 103 103 101 101
133 129 130 128 124 127 123 114 115 115 112 112 109 106 106 107 105 106 105 102 103 102 103 105 109 115 119 114 114 120 124 123 122 121 123 118 116 105 103 105 104 103 107 106 107
139 138 136 134 133 133 129 127 123 122 119 118 117 116 113 109 112 108 108 109 107 107 105 105 108 110 107 111 119 123 114 119 118 118 122 123 115 111 108 104 106 111 112 108 106

GFSSW_250_spd_075.txt.gz
Wind_Speed
106 108 90 93 94 98 92 90 89 86 79 84 72 71 78 68 67 65 64 65 60 60 53 53 47 48 46 40 44 43 42 39 37 35 35 38 36 35 38 27 25 16 14 12 11
96 104 93 88 96 97 96 93 89 85 87 84 76 71 70 74 62 73 65 56 63 63 51 51 50 43 39 43 50 39 35 35 36 36 40 39 41 38 37 30 28 17 15 13 13
97 107 94 83 95 97 101 91 91 83 85 82 79 75 75 76 67 63 58 61 64 64 63 57 58 51 45 43 46 38 27 36 34 35 37 42 42 44 39 36 29 20 15 15 13
95 105 100 80 91 96 93 97 95 92 83 78 79 80 79 79 78 73 67 66 62 63 65 60 59 59 54 50 47 43 40 43 39 41 44 41 42 38 42 38 30 24 18 15 15
88 98 107 87 83 88 97 89 97 96 91 85 71 81 80 79 78 80 71 70 65 59 62 58 56 54 58 53 51 46 39 43 43 44 46 42 41 46 44 36 31 26 24 19 16
91 92 104 106 86 78 94 93 90 94 97 94 82 74 77 80 79 76 75 73 73 68 65 63 60 59 53 53 52 51 45 45 45 44 46 39 44 43 43 40 37 34 24 25 22
89 90 97 109 91 84 89 102 87 96 97 93 90 85 74 76 75 75 69 70 68 69 69 68 64 60 57 59 62 55 46 49 52 50 48 40 42 32 35 40 43 34 33 29 28
94 91 92 102 114 86 80 89 91 90 96 96 91 88 86 80 75 72 70 71 71 68 69 68 63 60 59 52 54 54 57 56 52 51 46 39 40 41 32 41 42 48 43 32 30
98 94 93 101 105 100 80 84 97 85 89 97 95 88 81 87 80 80 76 75 72 72 71 66 59 62 63 60 60 60 59 57 57 56 51 42 44 36 32 36 46 42 36 34 33
96 98 93 96 102 100 92 82 82 87 89 84 92 95 89 89 84 82 85 78 75 75 75 73 71 67 66 71 70 69 65 64 63 58 50 43 46 45 36 38 36 36 36 32 35
86 103 96 100 96 94 104 85 81 84 87 88 85 89 92 94 88 84 86 87 86 80 76 74 71 73 79 71 68 70 69 71 62 60 56 50 44 42 37 36 38 38 33 32 33
83 98 99 101 97 97 93 93 81 83 88 86 83 85 91 92 94 92 90 86 82 82 84 83 75 79 77 75 75 73 73 70 64 62 55 50 45 47 42 39 38 37 39 35 34
80 90 101 101 99 96 93 91 93 90 85 89 87 86 89 90 88 89 89 89 87 84 84 84 83 82 77 76 76 75 73 71 67 62 58 55 45 50 46 43 42 41 43 40 41
78 89 96 100 105 101 97 89 92 94 93 88 89 88 90 82 88 82 88 88 87 87 86 81 82 83 82 81 80 77 74 71 67 67 59 55 46 51 52 49 48 46 46 45 41
80 84 92 94 105 106 103 94 95 95 99 94 93 84 83 88 86 85 91 81 83 88 83 81 83 80 80 77 78 75 77 74 72 68 62 55 52 53 55 50 52 50 51 49 50
75 77 83 92 97 102 106 102 98 101 97 99 97 94 90 83 83 87 84 81 81 80 79 77 77 79 78 79 77 76 78 75 74 69 63 60 58 47 59 56 55 56 56 55 54
75 75 79 88 94 100 101 107 108 108 102 95 95 97 94 90 85 85 85 83 84 84 78 77 77 77 76 76 75 75 77 78 75 72 64 66 59 49 54 61 60 59 61 62 62
81 79 81 81 87 94 99 103 113 115 104 97 92 94 97 94 91 90 87 85 85 84 84 82 78 76 76 76 75 77 75 75 75 74 72 70 54 57 55 58 61 65 65 64 66
88 83 84 82 83 84 89 104 106 114 112 106 102 96 94 99 97 97 94 93 93 91 90 90 87 85 80 79 79 78 73 78 80 78 78 71 62 61 63 65 65 67 68 70 71
86 88 85 85 84 86 90 90 98 109 110 112 109 107 100 96 97 97 97 96 94 93 91 91 90 88 88 89 86 85 86 86 86 84 83 73 71 67 72 75 74 75 76 76 77
93 90 89 81 86 87 86 88 93 95 100 106 106 112 109 105 102 98 98 97 98 98 99 98 95 93 93 91 92 93 93 94 94 95 93 86 78 74 77 78 79 80 80 79 79
97 94 95 92 92 88 86 85 88 91 88 89 92 109 106 111 113 109 106 104 103 102 104 105 104 100 99 99 99 100 98 100 100 99 100 98 82 79 83 85 84 85 85 85 85
99 97 96 93 89 85 88 90 88 86 92 94 92 90 98 109 104 108 112 112 111 110 109 106 106 106 106 105 103 105 103 104 105 106 99 104 84 83 88 87 88 89 90 89 90
109 106 104 101 95 92 88 95 93 90 86 84 82 84 85 88 104 107 107 109 112 116 116 114 112 111 109 109 108 109 109 110 108 107 105 107 98 89 94 93 95 95 95 96 96
117 108 105 106 101 99 100 93 97 93 92 88 85 81 85 88 91 92 100 102 107 112 112 114 114 114 113 117 118 115 112 114 114 113 117 108 114 92 95 99 102 103 102 103 102
126 123 118 109 109 108 106 102 102 104 103 101 95 95 93 90 88 90 91 89 93 96 100 108 109 110 111 115 117 120 115 115 116 115 118 115 114 105 103 104 109 107 105 106 107
135 131 129 124 118 112 109 108 110 109 109 108 107 105 102 96 97 92 92 91 91 92 94 98 101 103 109 115 120 119 110 117 117 117 121 123 119 115 112 108 109 110 111 112 111